[[{"header":{"parameterUnit":"m.s-1","parameterCategory":1,"la1":30.2991,"la2":30.254,"lo1":-89.0895,"lo2":-89.0444,"dy":0.0017,"dx":0.0017,"nx":28,"ny":28,"refTime":"2025-02-27T03:00:00:Z","depth":0,"parameterNumber":2,"parameterNumberName":"U-component_of_WINDS"},"data":[0,0,0,0,0,0,0,0,0,0,0,0,0,0,0,0,0,0,0,0,0,0,0,0,0,0,0,0,0,0,0,0,0,0,0,0,0,0,0,0,0,0,0,0,0,0,0,0,0,0,0,0,0,0,0,0,0,0,1.0112,1.0112,0,1.0148,1.0148,1.0149,1.014,1.0139,1.0138,1.0138,1.0173,1.0175,1.0177,0,0,0,0,0,0,0,0,0,0,0,0,0,1.0036,1.0037,1.0112,1.0112,1.0113,1.0148,1.0148,1.0149,1.014,1.0139,1.0138,1.0137,1.0173,1.0175,1.0177,0,0,0,0,0,0,0,0,0,0,0,0,0,1.007,1.0038,1.0112,1.0112,1.0113,1.0148,1.0148,1.0149,1.014,1.0139,1.0138,1.0137,1.0172,1.0175,1.0177,1.0213,0,0,1.0184,1.0185,0,0,0,0,0,0,0,0,1.0068,1.0073,1.0112,1.0112,1.0113,1.0138,1.0135,1.017,1.014,1.013,1.0137,1.0136,1.0162,1.0166,1.0175,1.0215,1.0216,1.0185,1.0186,1.0187,1.0188,0,0,0,0,0,0,0,1.0066,1.0071,1.0126,1.0112,1.0113,1.0111,1.0115,1.0141,1.0151,1.013,1.013,1.0134,1.0163,1.0172,1.0175,1.0217,1.0184,1.0187,1.0188,1.0189,1.0291,1.0292,0,0,0,0,0,0,1.0063,1.0069,1.0125,1.0127,1.0087,1.0113,1.0118,1.0131,1.0151,1.0153,1.0135,1.0134,1.0169,1.0173,1.0177,1.0222,1.0187,1.0189,1.0191,1.029,1.0291,1.0293,0,0,0,0,0,0,1.0061,1.0068,1.0123,1.0098,1.0105,1.0116,1.0131,1.0132,1.0142,1.0155,1.0156,1.0143,1.0168,1.0173,1.0205,1.0223,1.019,1.0193,1.0288,1.029,1.0292,1.0312,0,0,0,0,0,0,1.0059,1.0067,1.0081,1.0098,1.0106,1.0151,1.0132,1.0134,1.0147,1.0145,1.0163,1.0165,1.0168,1.0201,1.0207,1.0226,1.0194,1.0287,1.0289,1.0291,1.031,1.0314,1.0318,0,0,0,0,0,1.0056,1.0084,1.0082,1.0088,1.0124,1.0152,1.0156,1.0159,1.0148,1.0162,1.0171,1.0164,1.022,1.0205,1.0211,1.0231,1.0286,1.0289,1.0291,1.0308,1.0314,1.0318,0,0,0,0,0,0,1.0067,1.0086,1.0084,1.0118,1.0134,1.015,1.0168,1.0165,1.0183,1.0181,1.0184,1.0188,1.0221,1.0229,1.0211,1.0268,1.0251,1.0256,1.0262,1.0267,1.0271,1.0269,1.0196,0,0,0,0,0,1.0074,1.0095,1.0111,1.014,1.0148,1.0157,1.0169,1.017,1.0186,1.0192,1.0203,1.0219,1.024,1.0254,1.0274,1.0311,1.0316,1.0328,1.0332,1.0336,1.034,1.0362,1.0368,1.0302,1.0302,1.0302,0,0,1.0087,1.0101,1.0114,1.0142,1.0154,1.0177,1.0162,1.0186,1.0203,1.0196,1.0227,1.0236,1.0253,1.0288,1.0304,1.0296,1.0359,1.0339,1.0342,1.0344,1.0366,1.0372,1.0377,1.0304,1.0304,1.0303,0,0,1.0124,1.0135,1.0162,1.0175,1.0194,1.02,1.0207,1.0224,1.023,1.0262,1.0257,1.0278,1.0314,1.0327,1.0339,1.0384,1.0379,1.039,1.0412,1.0434,1.0439,1.0444,1.0462,1.0468,1.0394,1.0394,1.0394,0,1.0138,1.0172,1.0175,1.0201,1.0214,1.021,1.0238,1.025,1.0274,1.0284,1.0275,1.0322,1.0333,1.0373,1.0384,1.0393,1.0401,1.0388,1.0438,1.0443,1.0448,1.0464,1.0471,1.0395,1.0395,1.0395,1.0395,0,1.019,1.0214,1.0233,1.0258,1.0273,1.0299,1.0308,1.0323,1.0324,1.0331,1.0364,1.0378,1.0402,1.0411,1.0411,1.0452,1.0446,1.0438,1.0421,1.0455,1.0471,1.0477,1.0397,1.0396,1.0396,1.0396,0,0,1.0233,1.0261,1.0268,1.0281,1.0303,1.0321,1.0348,1.0373,1.0387,1.0404,1.0427,1.0459,1.0453,1.0466,1.0468,1.0487,1.0523,1.0476,1.0477,1.0486,1.0571,1.0578,1.0585,1.0521,1.0522,1.0523,1.057,0,1.0272,1.032,1.0325,1.0367,1.0391,1.0388,1.0412,1.0428,1.0436,1.0457,1.0466,1.049,1.0478,1.0486,1.0505,1.0515,1.0541,1.0511,1.0543,1.0544,1.054,1.0593,1.06,1.0643,1.0576,1.0577,1.0577,0,1.0324,1.0345,1.039,1.0411,1.0421,1.0442,1.0466,1.0486,1.0506,1.051,1.0527,1.0526,1.0555,1.0537,1.0578,1.0558,1.0571,1.0578,1.058,1.0583,1.0563,1.0599,1.0657,1.0664,1.0587,1.0586,1.0585,0,1.0353,1.0392,1.0425,1.0435,1.046,1.0476,1.0487,1.0505,1.052,1.0541,1.0551,1.0575,1.0588,1.0607,1.0614,1.06,1.0655,1.0637,1.066,1.066,1.0672,1.0671,1.0734,1.0679,1.0679,1.0679,1.0679,0,1.0397,1.0425,1.0438,1.0459,1.0491,1.0497,1.0529,1.0539,1.0556,1.0579,1.0578,1.0599,1.0606,1.0629,1.0635,1.0668,1.0674,1.0679,1.068,1.068,1.0679,1.0689,1.0687,1.068,1.068,1.068,1.0679,0,1.0434,1.0444,1.048,1.0502,1.0508,1.0531,1.0549,1.057,1.0578,1.0607,1.0614,1.0628,1.0655,1.0664,1.0696,1.07,1.074,1.0738,1.0734,1.0734,1.0758,1.0756,1.083,1.084,1.0777,1.0778,1.0778,0,1.0462,1.0484,1.0508,1.0524,1.0536,1.0561,1.0577,1.0585,1.0601,1.0627,1.0644,1.0671,1.0694,1.0738,1.075,1.0776,1.0775,1.0799,1.0779,1.0778,1.0777,1.0776,1.0779,1.0803,1.0804,1.0804,1.0805,0,1.051,1.0515,1.0538,1.0565,1.0584,1.0605,1.0624,1.0637,1.0648,1.0667,1.0696,1.0713,1.0748,1.0775,1.0802,1.0813,1.0812,1.0811,1.0818,1.0818,1.0816,1.0819,1.0746,1.0809,1.0809,1.0809,1.0808,1.0808,1.0545,1.0565,1.0586,1.0613,1.0629,1.0649,1.0669,1.0682,1.0706,1.0735,1.0738,1.0769,1.079,1.0825,1.0839,1.0864,1.0857,1.0866,1.0869,1.0872,1.0874,1.0811,1.0868,1.0868,1.0868,1.0868,1.0868,0,1.0595,1.0609,1.0633,1.0662,1.0684,1.0681,1.0704,1.0722,1.075,1.0769,1.0792,1.0826,1.0853,1.0869,1.0897,1.0914,1.0914,1.0921,1.092,1.0924,1.0878,1.087,1.0921,1.0921,1.0921,1.0921,1.0921,1.0921,1.0623,1.0658,1.0666,1.0709,1.0723,1.0754,1.0768,1.0786,1.0802,1.0841,1.0864,1.0874,1.0893,1.0923,1.0948,1.0952,1.0963,1.0971,1.0975,1.0932,1.0926,1.0921,1.0914,1.0973,1.0973,1.1018,1.1019,1.1019]},{"header":{"parameterUnit":"m.s-1","parameterCategory":1,"la1":30.2991,"la2":30.254,"lo1":-89.0895,"lo2":-89.0444,"dy":0.0017,"dx":0.0017,"nx":28,"ny":28,"refTime":"2025-02-27T03:00:00:Z","depth":0,"parameterNumber":3,"parameterNumberName":"V-component_of_WINDS"},"data":[0,0,0,0,0,0,0,0,0,0,0,0,0,0,0,0,0,0,0,0,0,0,0,0,0,0,0,0,0,0,0,0,0,0,0,0,0,0,0,0,0,0,0,0,0,0,0,0,0,0,0,0,0,0,0,0,0,0,-3.9324,-3.9325,0,-3.9369,-3.9369,-3.937,-3.9345,-3.9344,-3.9343,-3.9342,-3.9385,-3.9387,-3.939,0,0,0,0,0,0,0,0,0,0,0,0,0,-3.9219,-3.9221,-3.9324,-3.9325,-3.9325,-3.9369,-3.9369,-3.937,-3.9345,-3.9344,-3.9342,-3.9341,-3.9384,-3.9387,-3.939,0,0,0,0,0,0,0,0,0,0,0,0,0,-3.9264,-3.9222,-3.9324,-3.9318,-3.9318,-3.9368,-3.9369,-3.937,-3.9346,-3.9344,-3.9342,-3.934,-3.9384,-3.9387,-3.939,-3.9448,0,0,-3.9401,-3.9402,0,0,0,0,0,0,0,0,-3.9262,-3.9268,-3.9319,-3.9319,-3.9319,-3.935,-3.9348,-3.9396,-3.9346,-3.9335,-3.9342,-3.9339,-3.9375,-3.9379,-3.9391,-3.945,-3.9452,-3.9401,-3.9403,-3.9405,-3.9406,0,0,0,0,0,0,0,-3.9258,-3.9266,-3.9342,-3.932,-3.932,-3.9314,-3.9318,-3.9357,-3.9365,-3.9336,-3.9334,-3.934,-3.9374,-3.9388,-3.9392,-3.9452,-3.9401,-3.9404,-3.9406,-3.9408,-3.9564,-3.9566,0,0,0,0,0,0,-3.9256,-3.9263,-3.934,-3.9343,-3.9285,-3.9317,-3.9322,-3.9342,-3.9364,-3.9366,-3.9342,-3.9339,-3.9383,-3.9388,-3.9393,-3.9464,-3.9405,-3.9408,-3.941,-3.9562,-3.9564,-3.9567,0,0,0,0,0,0,-3.9254,-3.9263,-3.9339,-3.9303,-3.9312,-3.9321,-3.9343,-3.9343,-3.9357,-3.9368,-3.9369,-3.9354,-3.9382,-3.9388,-3.9435,-3.9465,-3.9409,-3.9413,-3.9559,-3.9563,-3.9565,-3.9606,0,0,0,0,0,0,-3.9251,-3.9262,-3.9284,-3.9304,-3.9314,-3.938,-3.9345,-3.9346,-3.9363,-3.936,-3.938,-3.9382,-3.9381,-3.943,-3.9439,-3.9469,-3.9415,-3.9557,-3.9561,-3.9564,-3.9602,-3.961,-3.9617,0,0,0,0,0,-3.9247,-3.9292,-3.9285,-3.9295,-3.9341,-3.9382,-3.9388,-3.9386,-3.9365,-3.9388,-3.9396,-3.9381,-3.9461,-3.9435,-3.9445,-3.9476,-3.9555,-3.956,-3.9564,-3.9598,-3.9608,-3.9616,0,0,0,0,0,0,-3.9275,-3.9295,-3.9287,-3.934,-3.936,-3.9377,-3.9405,-3.9396,-3.9421,-3.9417,-3.9413,-3.9418,-3.9467,-3.9476,-3.9448,-3.9535,-3.9505,-3.9511,-3.9527,-3.9537,-3.9544,-3.9541,-3.9418,0,0,0,0,0,-3.9287,-3.9318,-3.9334,-3.9379,-3.939,-3.9396,-3.9413,-3.9411,-3.943,-3.9438,-3.9449,-3.9469,-3.9498,-3.9518,-3.9545,-3.9603,-3.9608,-3.9629,-3.9637,-3.9643,-3.9649,-3.9683,-3.9693,-3.9582,-3.9582,-3.9582,0,0,-3.9313,-3.9328,-3.9347,-3.9385,-3.94,-3.9433,-3.9403,-3.9438,-3.9463,-3.9443,-3.9489,-3.9498,-3.952,-3.9573,-3.9597,-3.9582,-3.9681,-3.9649,-3.9654,-3.9657,-3.9688,-3.9699,-3.9708,-3.9585,-3.9585,-3.9584,0,0,-3.9377,-3.939,-3.9431,-3.9447,-3.9471,-3.9475,-3.9485,-3.9505,-3.9511,-3.9557,-3.9544,-3.9573,-3.9623,-3.964,-3.9655,-3.9729,-3.9717,-3.9738,-3.9777,-3.981,-3.9818,-3.9826,-3.9854,-3.9864,-3.9744,-3.9744,-3.9744,0,-3.9406,-3.9455,-3.9453,-3.949,-3.9508,-3.9494,-3.9536,-3.9551,-3.9582,-3.9595,-3.9578,-3.9643,-3.9656,-3.9714,-3.9733,-3.9745,-3.9757,-3.9735,-3.9817,-3.9825,-3.9832,-3.9859,-3.987,-3.9746,-3.9746,-3.9746,-3.9745,0,-3.949,-3.9525,-3.9555,-3.9587,-3.9608,-3.9647,-3.9652,-3.9674,-3.967,-3.9676,-3.9725,-3.9741,-3.9773,-3.9786,-3.9781,-3.9844,-3.9835,-3.9818,-3.9787,-3.9846,-3.9871,-3.9881,-3.975,-3.9749,-3.9748,-3.9747,0,0,-3.9571,-3.9604,-3.9615,-3.9631,-3.9657,-3.9684,-3.9723,-3.9755,-3.9775,-3.9797,-3.9831,-3.9876,-3.9861,-3.9879,-3.9876,-3.9905,-3.9965,-3.9885,-3.9885,-3.9901,-4.0038,-4.0051,-4.0063,-3.9957,-3.9959,-3.9961,-4.0037,0,-3.9638,-3.9708,-3.9709,-3.9773,-3.9806,-3.9794,-3.9829,-3.9849,-3.9857,-3.9886,-3.9894,-3.9927,-3.9904,-3.9915,-3.9942,-3.9952,-3.9993,-3.9946,-3.999,-3.9991,-3.9986,-4.0076,-4.009,-4.0161,-4.0046,-4.0048,-4.0049,0,-3.9725,-3.9753,-3.9821,-3.9845,-3.9859,-3.989,-3.9921,-3.9949,-3.9972,-3.9976,-3.9997,-3.9991,-4.0032,-4.0001,-4.0058,-4.0027,-4.0045,-4.0052,-4.0055,-4.006,-4.0024,-4.0085,-4.0183,-4.0194,-4.0064,-4.0063,-4.0062,0,-3.978,-3.9834,-3.9882,-3.9896,-3.9924,-3.9947,-3.996,-3.9981,-4.0002,-4.0029,-4.0043,-4.0074,-4.0091,-4.0116,-4.0119,-4.0095,-4.0178,-4.0146,-4.0183,-4.0183,-4.0202,-4.0201,-4.0306,-4.0211,-4.0211,-4.0211,-4.021,0,-3.9856,-3.9898,-3.9908,-3.9938,-3.9986,-3.9987,-4.0034,-4.0045,-4.0065,-4.0098,-4.0088,-4.0119,-4.0121,-4.0153,-4.0155,-4.0204,-4.0211,-4.0216,-4.0217,-4.0218,-4.0218,-4.023,-4.0226,-4.0213,-4.0213,-4.0212,-4.0212,0,-3.9925,-3.9933,-3.9985,-4.0009,-4.0016,-4.0051,-4.0071,-4.01,-4.0108,-4.0149,-4.0159,-4.0171,-4.0208,-4.0214,-4.0257,-4.0259,-4.0318,-4.0312,-4.031,-4.031,-4.0348,-4.0345,-4.0466,-4.0483,-4.0376,-4.0377,-4.0377,0,-3.9973,-4.0006,-4.0034,-4.0056,-4.0071,-4.0105,-4.0127,-4.013,-4.0152,-4.0183,-4.0209,-4.0246,-4.0275,-4.0335,-4.0348,-4.0381,-4.0377,-4.0417,-4.0382,-4.0383,-4.038,-4.0379,-4.0383,-4.0424,-4.0426,-4.0426,-4.0427,0,-4.0058,-4.0061,-4.0093,-4.0127,-4.0154,-4.018,-4.0206,-4.0224,-4.023,-4.0257,-4.0295,-4.0318,-4.0364,-4.0401,-4.0435,-4.0448,-4.044,-4.0438,-4.0449,-4.0451,-4.045,-4.0453,-4.0331,-4.0436,-4.0435,-4.0434,-4.0434,-4.0433,-4.0119,-4.0149,-4.0175,-4.0211,-4.0231,-4.0256,-4.0285,-4.0298,-4.033,-4.0368,-4.0368,-4.0411,-4.0436,-4.0481,-4.0497,-4.0531,-4.0518,-4.0533,-4.0537,-4.0541,-4.0546,-4.0444,-4.0537,-4.0537,-4.0536,-4.0536,-4.0536,0,-4.0206,-4.0222,-4.0256,-4.0293,-4.0322,-4.0313,-4.0341,-4.0366,-4.0404,-4.0429,-4.0459,-4.0505,-4.0541,-4.0558,-4.0594,-4.0618,-4.0616,-4.0628,-4.0627,-4.0631,-4.0554,-4.0542,-4.063,-4.063,-4.063,-4.063,-4.063,-4.063,-4.0254,-4.0305,-4.0312,-4.0373,-4.0389,-4.0433,-4.045,-4.0473,-4.0493,-4.0545,-4.0576,-4.0587,-4.0609,-4.0647,-4.0681,-4.0685,-4.0699,-4.0714,-4.0716,-4.0645,-4.0635,-4.0626,-4.0615,-4.0717,-4.0717,-4.079,-4.0791,-4.0791]}]]